Location: Chacón
(10.5789°N, 66.9317°W)
Time: 20:44:28
(UTC+00:00)

ASTRO E2 - Pass Details

Date: 23 May 2024
Orbit: 425 x 429 km, 31.4° (Epoch: 23 June)

Event Time Altitude Azimuth Distance (km) Brightness Sun altitude
Exits shadow 09:31:43 - 222° (SW) 1,573 4.6 -8.3°
Reaches altitude 10° 09:31:55 10° 222° (SW) 1,496 4.5 -8.3°
Maximum altitude 09:35:12 45° 147° (SSE) 577 3.0 -7.6°
Drops below altitude 10° 09:38:30 10° 73° (ENE) 1,498 6.8 -6.8°
Sets 09:40:41 0° 67° (ENE) 2,364 8.9 -6.3°
